Date,TemperatureHighF,TemperatureAvgF,TemperatureLowF,DewpointHighF,DewpointAvgF,DewpointLowF,HumidityHigh,HumidityAvg,HumidityLow,PressureMaxIn,PressureMinIn,WindSpeedMaxMPH,WindSpeedAvgMPH,GustSpeedMaxMPH,PrecipitationSumIn
2014-1-1,62.4,48.6,33.8,54.2,43.3,29.2,93,82,70,29.92,29.92,16,3,16,0.00
2014-1-2,58.3,41.5,31.5,54.9,26.3,18.2,89,56,33,29.92,29.92,17,5,17,0.87
2014-1-3,50.7,38.2,27.9,29.1,23.0,16.5,67,55,35,29.92,29.92,10,3,10,0.01
2014-1-4,64.6,50.2,34.0,52.2,40.9,24.1,84,71,61,29.92,29.92,23,8,23,0.00
2014-1-5,59.4,44.2,27.0,56.0,34.5,13.3,92,69,48,29.92,29.92,21,7,21,0.92
2014-1-6,31.3,25.4,18.5,14.1,3.5,-4.4,60,40,24,29.92,29.92,19,5,19,0.27
2014-1-7,44.6,31.6,19.2,43.8,10.3,3.8,97,44,18,29.92,29.92,13,3,13,0.00
2014-1-8,51.3,42.3,34.9,37.7,25.7,14.5,74,52,40,29.92,29.92,17,5,17,0.00
2014-1-9,57.0,51.2,45.5,55.9,48.0,37.7,96,89,74,29.92,29.92,13,2,13,0.64
2014-1-10,70.0,61.8,55.9,62.6,58.5,54.5,96,89,70,29.92,29.92,21,6,21,0.02
2014-1-11,68.2,57.3,42.8,61.6,40.7,22.5,92,60,19,29.92,29.92,13,2,13,0.08
2014-1-12,73.2,54.0,35.6,52.7,38.3,29.6,89,62,21,29.92,29.92,22,5,22,0.01
2014-1-13,68.2,59.8,43.2,62.4,43.9,22.1,97,62,21,29.92,29.92,20,4,20,0.18
2014-1-14,69.8,51.3,33.6,38.9,31.2,22.3,84,52,18,29.92,29.92,17,3,17,0.06
2014-1-15,54.9,45.3,35.6,33.7,23.9,15.9,68,45,22,29.92,29.92,15,3,19,0.22
2014-1-16,66.9,47.9,32.4,38.1,31.8,25.0,75,57,27,29.92,29.92,14,2,14,0.00
2014-1-17,55.8,46.3,34.5,35.1,20.9,11.0,75,40,20,29.92,29.92,14,3,14,0.25
2014-1-18,67.1,48.1,30.0,42.5,29.3,20.6,77,52,21,29.92,29.92,24,3,24,0.00
2014-1-19,63.7,48.3,34.9,42.0,31.7,22.1,87,58,21,29.92,29.92,8,1,8,0.00
2014-1-20,74.1,52.5,33.3,56.0,42.0,26.7,90,69,45,29.92,29.92,17,3,17,0.01
2014-1-21,136.4,48.7,32.0,38.8,19.7,11.4,59,33,20,33.70,29.92,45,6,45,593.10
2014-1-22,64.8,44.8,28.4,36.1,26.4,20.2,72,52,22,29.92,29.92,11,2,11,0.00
2014-1-23,45.5,37.8,27.5,36.4,30.8,22.8,91,76,55,29.92,29.92,16,4,16,0.39
2014-1-24,40.5,31.9,26.1,24.1,18.4,12.1,82,59,34,29.92,29.92,8,2,8,0.08
2014-1-25,61.0,41.2,25.2,37.0,28.5,17.5,79,62,35,29.92,29.92,11,2,11,0.00
2014-1-26,70.5,52.9,39.4,46.5,39.2,30.5,88,64,23,29.92,29.92,19,3,19,0.00
2014-1-27,56.5,49.7,38.8,52.2,30.5,5.5,97,54,23,29.92,29.92,21,6,21,0.81
2014-1-28,38.8,33.0,27.1,15.3,8.5,-0.8,55,36,21,29.92,29.92,17,6,17,0.17
2014-1-29,43.5,32.9,24.3,20.2,14.2,7.9,72,48,24,29.92,29.92,8,2,8,0.00
2014-1-30,55.2,41.4,25.7,43.4,27.9,9.6,79,59,44,29.92,29.92,18,6,18,0.00
2014-1-31,71.1,59.0,49.1,59.5,52.7,43.2,94,80,64,29.92,29.92,19,7,19,0.00
2014-2-1,69.3,63.1,58.3,64.3,60.0,54.5,96,90,80,29.92,29.92,14,4,14,0.02
2014-2-2,65.1,44.5,38.5,64.1,43.5,36.5,99,96,89,29.92,29.92,14,6,14,0.90
2014-2-3,46.2,40.6,37.4,40.7,37.9,36.0,98,90,79,29.92,29.92,12,4,12,0.01
2014-2-4,44.6,40.3,37.0,43.9,39.7,35.2,99,98,93,29.92,29.92,10,2,10,0.32
2014-2-5,42.1,36.5,31.5,35.7,29.0,21.4,96,75,57,29.92,29.92,15,5,15,0.43
2014-2-6,34.2,31.9,29.7,23.9,22.6,21.6,76,68,62,29.92,29.92,17,5,17,0.08
2014-2-7,36.1,33.7,31.3,33.3,28.3,21.2,94,81,64,29.92,29.92,8,2,8,0.17
2014-2-8,53.4,42.6,34.9,45.7,39.3,33.3,98,88,73,29.92,29.92,8,2,8,0.01
2014-2-9,67.5,53.6,42.3,54.0,48.5,40.7,98,84,55,29.92,29.92,14,3,14,0.01
2014-2-10,51.3,39.6,33.4,47.8,37.9,29.7,98,94,86,29.92,29.92,14,5,14,0.25
2014-2-11,40.8,34.0,31.1,30.2,28.0,24.4,91,79,59,29.92,29.92,15,4,15,0.32
2014-2-12,46.0,35.5,29.5,34.4,30.2,26.9,92,81,62,29.92,29.92,12,1,12,0.25
2014-2-13,63.0,44.1,0.0,99.9,34.7,25.0,89,71,5,29.92,29.92,11,2,11,0.00
2014-2-14,72.5,54.4,38.1,56.4,41.1,31.9,95,66,23,29.92,29.92,21,4,21,0.07
2014-2-15,67.1,49.7,35.1,38.2,33.6,25.1,86,58,21,29.92,29.92,13,2,13,0.00
2014-2-16,75.4,58.5,42.3,62.3,50.2,34.3,92,75,58,29.92,29.92,12,3,12,0.00
2014-2-17,79.7,68.2,56.7,64.0,55.4,39.9,93,67,28,29.92,29.92,14,4,14,0.00
2014-2-18,77.5,63.2,47.8,64.0,55.0,41.2,91,75,57,29.92,29.92,17,4,17,0.00
2014-2-19,79.5,69.4,62.1,64.6,61.6,58.6,94,78,50,29.92,29.92,21,7,21,0.00
2014-2-20,79.7,67.9,52.9,68.2,58.1,35.5,88,73,39,29.92,29.92,25,8,25,0.38
2014-2-21,68.0,53.2,38.3,42.4,32.0,19.8,86,52,17,29.92,29.92,9,2,9,0.01
2014-2-22,72.0,55.7,39.6,45.4,39.1,35.1,87,58,27,29.92,29.92,17,4,17,0.00
2014-2-23,79.3,64.8,54.7,64.9,56.5,43.6,89,75,59,29.92,29.92,11,2,11,0.01
2014-2-24,65.5,60.0,54.9,55.4,51.2,46.5,87,73,62,29.92,29.92,11,3,11,0.01
2014-2-25,59.9,54.5,47.7,58.5,53.1,47.1,99,95,86,29.92,29.92,10,2,10,0.20
2014-2-26,47.7,43.0,35.1,47.1,35.4,25.9,98,75,58,29.92,29.92,17,5,17,0.41
2014-2-27,57.9,42.9,28.2,33.5,23.3,14.6,75,49,21,29.92,29.92,8,2,8,0.00
2014-2-28,60.8,50.8,38.7,59.5,47.8,32.5,99,90,64,29.92,29.92,17,4,17,0.06
2014-3-1,70.9,65.0,59.7,67.2,63.1,59.5,99,94,77,29.92,29.92,19,5,19,0.00
2014-3-2,69.1,55.2,28.6,67.9,53.1,25.8,98,93,87,29.92,29.92,16,4,16,0.34
2014-3-3,29.7,26.2,21.9,25.8,21.3,18.1,89,82,72,29.92,29.92,0,0,0,1.09
2014-3-4,44.2,33.9,27.3,30.5,25.3,21.0,83,71,56,29.92,29.92,8,1,8,0.01
2014-3-5,52.2,41.3,29.7,43.3,36.0,25.6,92,82,69,29.92,29.92,10,2,10,0.00
2014-3-6,60.3,48.7,39.7,41.8,37.6,30.7,96,70,33,29.92,29.92,12,3,15,0.33
2014-3-7,65.5,50.3,32.4,46.6,40.0,28.7,93,70,43,29.92,29.92,13,3,13,0.00
2014-3-8,62.2,55.1,47.8,56.4,51.5,44.1,97,88,76,29.92,29.92,12,2,12,0.27
2014-3-9,55.2,48.9,42.3,51.6,46.5,42.0,99,92,81,29.92,29.92,11,3,11,0.13
2014-3-10,75.6,60.0,50.0,59.3,54.0,49.5,99,82,55,29.92,29.92,11,2,11,0.00
2014-3-11,79.7,65.2,54.5,60.5,56.1,52.7,96,75,46,29.92,29.92,16,3,17,0.00
2014-3-12,64.0,57.3,49.6,57.2,36.3,21.7,93,50,21,29.92,29.92,20,7,22,1.39
2014-3-13,69.6,53.9,35.2,38.4,32.3,25.8,82,48,23,29.92,29.92,11,2,15,0.00
2014-3-14,72.0,58.8,43.9,56.4,47.8,37.9,85,68,51,29.92,29.92,18,4,18,0.00
2014-3-15,67.3,62.7,60.3,64.2,60.1,56.0,98,91,79,29.92,29.92,14,4,14,0.85
2014-3-16,63.0,54.1,42.4,62.1,49.9,35.8,99,86,72,29.92,29.92,21,4,21,1.45
2014-3-17,62.8,49.8,41.4,44.1,39.1,34.7,81,68,46,29.92,29.92,12,4,12,0.15
2014-3-18,77.7,59.5,43.0,56.2,48.3,40.0,95,70,36,29.92,29.92,25,7,25,0.00
2014-3-19,73.6,62.8,54.5,57.7,46.2,36.3,93,59,27,29.92,29.92,16,4,16,0.12
2014-3-20,75.9,60.0,47.1,45.9,41.2,35.2,75,53,25,29.92,29.92,8,2,8,0.00
2014-3-21,80.6,63.2,46.4,59.1,51.3,42.4,89,68,39,29.92,29.92,19,4,19,0.00
2014-3-22,78.8,69.1,62.2,66.8,63.2,57.9,97,82,63,29.92,29.92,11,3,11,0.00
2014-3-23,69.4,57.2,49.8,66.6,51.0,43.6,95,80,64,29.92,29.92,20,5,20,0.22
2014-3-24,67.8,55.7,46.0,46.2,42.4,37.9,83,63,43,29.92,29.92,9,2,9,0.00
2014-3-25,66.6,54.0,41.0,43.9,34.3,21.6,89,54,19,29.92,29.92,16,4,16,0.24
2014-3-26,61.9,52.2,40.6,47.3,38.1,31.8,84,61,36,29.92,29.92,20,6,20,0.00
2014-3-27,68.0,62.1,54.0,67.6,59.8,47.3,99,92,78,29.92,29.92,21,6,21,0.24
2014-3-28,85.8,71.5,60.3,71.7,66.5,57.6,99,86,54,29.92,29.92,29,4,29,0.43
2014-3-29,75.4,63.7,53.1,59.1,47.8,32.1,97,63,23,29.92,29.92,14,4,14,0.17
2014-3-30,77.0,61.0,43.3,51.1,45.9,40.3,91,62,34,29.92,29.92,14,3,14,0.00
2014-3-31,82.2,65.2,50.5,62.1,54.1,46.5,92,69,42,29.92,29.92,21,6,21,0.01
2014-4-1,78.8,69.8,62.4,69.3,64.7,57.7,95,84,70,29.92,29.92,14,5,14,0.00
2014-4-2,78.8,72.4,67.6,71.3,68.2,65.3,96,87,72,29.92,29.92,21,6,21,0.00
2014-4-3,82.8,75.0,70.9,71.8,69.0,66.0,94,82,64,29.92,29.92,27,10,27,0.00
2014-4-4,73.4,64.5,54.1,71.9,46.0,29.5,95,56,24,29.92,29.92,27,6,27,0.74
2014-4-5,63.7,57.2,51.6,45.8,42.1,36.7,68,57,46,29.92,29.92,13,4,13,0.06
2014-4-6,55.6,52.5,50.5,52.9,49.7,43.9,99,91,67,29.92,29.92,16,3,16,1.76
2014-4-7,65.8,55.5,32.0,99.9,50.9,48.6,99,84,5,33.70,29.92,45,2,45,49.40
2014-4-8,70.3,59.6,50.9,50.9,44.5,31.9,95,63,27,29.92,29.92,21,3,21,0.41
2014-4-9,80.1,61.8,42.1,49.2,42.6,32.0,90,56,23,29.92,29.92,11,2,11,0.00
2014-4-10,84.6,68.6,52.7,61.3,55.1,48.6,92,65,38,29.92,29.92,25,7,25,0.00
2014-4-11,84.2,70.5,59.4,63.2,59.5,56.5,95,71,46,29.92,29.92,23,7,23,0.00
2014-4-12,84.7,71.5,62.6,66.1,61.9,58.2,95,74,49,29.92,29.92,22,7,22,0.00
2014-4-13,76.5,70.2,65.7,70.2,65.9,60.7,93,86,75,29.92,29.92,20,6,20,0.01
2014-4-14,72.9,58.0,43.3,70.9,54.2,36.6,96,87,72,29.99,29.92,20,6,20,0.77
2014-4-15,63.3,50.3,38.1,39.4,31.3,19.9,81,53,23,29.92,29.92,13,3,13,0.30
2014-4-16,67.6,54.0,38.1,46.0,39.0,30.6,90,61,28,29.92,29.92,13,3,13,0.00
2014-4-17,71.4,59.3,48.6,53.3,49.4,45.4,94,72,46,29.92,29.92,9,2,9,0.00
2014-4-18,77.2,65.6,55.6,56.8,53.7,51.1,89,68,44,29.92,29.92,12,2,12,0.08
2014-4-19,82.4,67.3,51.6,62.1,55.6,49.8,94,69,38,29.92,29.92,9,1,9,0.00
2014-4-20,85.5,70.8,55.2,64.1,57.6,52.8,93,67,40,29.92,29.92,13,2,13,0.00
2014-4-21,81.9,71.0,59.4,68.2,62.3,54.5,87,74,61,29.92,29.92,12,3,12,0.00
2014-4-22,84.9,74.3,64.4,65.9,62.6,59.4,93,69,45,29.92,29.92,12,2,12,0.00
2014-4-23,87.4,73.4,57.9,66.7,61.6,55.3,93,69,43,29.92,29.92,12,3,12,0.00
2014-4-24,83.7,73.6,67.3,69.2,66.6,64.2,92,79,56,29.92,29.92,20,5,20,0.00
2014-4-25,86.2,71.0,56.5,66.5,52.2,40.8,93,57,24,29.92,29.92,8,1,8,0.00
2014-4-26,87.3,72.0,0.0,99.9,63.5,50.1,95,74,5,29.92,29.92,16,4,16,36.81
2014-4-27,89.2,79.4,73.8,72.5,70.4,67.1,90,75,51,29.92,29.92,26,9,26,0.00
2014-4-28,88.9,75.9,61.9,74.8,60.9,41.9,96,66,24,29.92,29.92,17,4,17,0.26
2014-4-29,79.3,68.4,56.1,65.3,49.4,38.5,91,56,26,29.92,29.92,15,3,15,0.31
2014-4-30,70.3,60.2,47.8,47.1,44.1,40.9,86,57,37,29.92,29.92,15,3,15,0.43
2014-5-1,76.1,61.2,44.4,53.1,42.1,29.8,90,56,21,29.92,29.92,15,2,15,0.08
2014-5-2,82.6,65.9,50.0,52.9,45.8,37.1,86,54,21,29.92,29.92,13,2,13,0.00
2014-5-3,89.8,69.5,50.0,55.5,50.0,44.7,87,56,22,29.92,29.92,11,2,11,0.00
2014-5-4,91.9,73.0,53.1,58.2,52.8,48.5,88,55,25,29.92,29.92,17,4,17,0.00
2014-5-5,89.8,73.8,57.4,61.6,56.3,47.4,84,56,34,29.92,29.92,17,6,17,0.00
2014-5-6,89.1,74.5,61.0,64.4,61.6,58.2,92,67,42,29.92,29.92,19,7,19,0.00
2014-5-7,87.1,75.7,66.9,69.4,65.3,62.2,92,72,46,29.92,29.92,22,7,22,0.00
2014-5-8,76.5,74.1,71.6,72.7,71.1,69.4,97,90,83,29.92,29.92,17,5,17,0.40
2014-5-9,84.6,75.6,69.1,78.8,72.6,65.5,98,91,74,29.92,29.92,15,4,15,0.14
2014-5-10,89.6,76.8,67.5,74.8,70.5,66.5,99,82,59,29.92,29.92,15,3,15,0.00
2014-5-11,91.4,80.9,74.3,74.1,72.4,69.3,96,77,51,29.92,29.92,21,6,21,0.00
2014-5-12,90.1,78.7,65.1,76.8,72.4,64.5,99,82,60,29.92,29.92,19,6,19,2.88
2014-5-13,70.3,65.3,61.0,68.7,63.2,57.1,99,93,85,29.92,29.92,14,2,14,0.78
2014-5-14,67.6,59.6,53.8,57.1,51.9,45.1,97,78,48,29.92,29.92,20,4,20,0.86
2014-5-15,79.9,63.0,45.7,54.6,49.8,43.1,92,66,34,29.92,29.92,11,2,11,0.01
2014-5-16,85.3,68.9,52.9,59.3,53.8,48.9,92,63,33,29.92,29.92,17,4,17,0.00
2014-5-17,87.8,73.0,58.8,63.0,58.6,52.1,93,63,39,29.92,29.92,17,5,17,0.00
2014-5-18,88.3,74.9,62.2,69.5,63.3,59.9,94,70,43,29.92,29.92,14,4,14,0.00
2014-5-19,89.1,75.9,65.3,68.3,64.2,61.9,95,70,44,29.92,29.92,19,6,19,0.00
2014-5-20,89.2,77.1,67.3,70.4,66.3,63.3,94,72,46,29.92,29.92,18,6,18,0.00
2014-5-21,90.1,79.0,68.7,71.5,67.3,63.7,94,70,43,29.92,29.92,15,5,15,0.00
2014-5-22,90.1,78.2,69.4,71.5,67.7,64.1,94,72,46,29.92,29.92,9,2,11,0.00
2014-5-23,87.6,78.1,69.1,71.5,68.4,66.0,95,74,50,29.92,29.92,11,3,11,0.00
2014-5-24,86.0,76.2,67.8,72.0,68.4,65.6,94,78,55,29.92,29.92,8,1,8,0.00
2014-5-25,90.9,79.1,69.6,72.4,69.0,65.6,94,73,47,29.92,29.92,10,3,10,0.00
2014-5-26,84.4,73.8,68.2,73.8,69.4,65.8,96,87,65,29.92,29.92,10,2,10,0.20
2014-5-27,74.1,70.1,65.8,72.0,68.4,65.3,98,94,86,29.92,29.92,10,2,10,0.99
2014-5-28,78.6,69.9,0.0,99.9,68.9,66.9,99,92,5,33.70,29.92,56,1,56,1.00
2014-5-29,84.2,73.6,65.5,72.5,68.4,65.2,99,85,57,29.92,29.92,8,1,8,0.12
2014-5-30,86.9,75.9,70.7,75.7,71.6,69.5,97,87,63,29.92,29.92,9,1,9,0.07
2014-5-31,86.4,75.6,70.2,75.7,71.5,68.7,97,88,60,29.92,29.92,8,1,8,0.34
2014-6-1,90.5,78.6,70.5,76.3,72.4,69.7,98,83,54,29.92,29.92,10,1,10,0.00
2014-6-2,92.1,81.5,73.4,75.6,72.9,70.1,96,77,51,29.92,29.92,12,3,12,0.00
2014-6-3,91.2,81.3,72.9,75.9,73.0,70.6,97,77,55,29.92,29.92,9,2,9,0.00
2014-6-4,92.5,82.1,72.7,75.8,73.4,70.4,96,76,53,29.92,29.92,12,3,12,0.00
2014-6-5,91.0,81.2,73.8,77.1,74.4,71.7,95,81,62,29.92,29.92,17,3,17,0.00
2014-6-6,94.1,83.3,73.6,76.9,73.6,70.2,96,75,50,29.92,29.92,12,3,12,0.00
2014-6-7,96.3,85.2,73.2,76.7,73.7,70.8,93,71,48,29.92,29.92,16,3,16,0.00
2014-6-8,93.9,83.4,75.2,76.3,74.2,71.4,94,75,54,29.92,29.92,15,4,15,0.00
2014-6-9,84.7,75.5,68.5,75.9,71.9,66.2,94,89,67,29.92,29.92,18,5,18,1.13
2014-6-10,82.6,74.3,67.8,69.9,67.2,63.5,97,80,55,29.92,29.92,12,2,12,0.45
2014-6-11,92.1,78.3,64.6,72.3,67.7,62.5,96,73,44,29.92,29.92,10,1,10,0.00
2014-6-12,84.6,76.1,71.4,77.1,73.0,68.2,96,90,76,29.92,29.92,12,2,12,0.09
2014-6-13,92.1,80.8,71.8,75.7,72.6,70.6,98,78,52,29.92,29.92,12,1,12,0.14
2014-6-14,91.6,81.2,71.8,76.8,72.7,69.7,95,77,52,29.92,29.92,14,3,14,0.00
2014-6-15,94.8,83.8,74.8,76.7,74.2,72.1,95,74,50,29.92,29.92,18,5,18,0.00
2014-6-16,94.3,83.2,77.5,78.1,75.2,72.2,92,78,51,29.92,29.92,21,4,21,0.02
2014-6-17,94.3,82.4,76.3,79.3,75.7,70.9,94,81,56,29.92,29.92,21,4,21,0.05
2014-6-18,93.2,80.0,74.1,78.3,74.0,69.6,96,83,53,29.92,29.92,13,3,21,0.08
2014-6-19,93.2,84.7,74.5,78.7,73.5,69.5,96,71,48,29.92,29.92,14,2,14,0.00
2014-6-20,93.9,83.8,73.9,78.1,73.3,69.4,95,73,47,29.92,29.92,8,1,8,0.00
2014-6-21,93.9,82.6,73.2,77.3,73.2,68.6,92,75,48,29.92,29.92,12,1,12,0.00
2014-6-22,88.3,80.8,75.7,78.7,75.1,71.3,92,83,68,29.92,29.92,10,2,10,0.00
2014-6-23,90.7,78.9,0.0,99.9,74.8,71.3,96,84,5,33.70,29.92,17,3,17,0.53
2014-6-24,91.6,76.1,32.0,99.9,74.8,70.0,97,82,5,33.70,29.92,19,2,19,27.85
2014-6-25,86.7,76.5,0.0,75.1,72.2,69.8,97,86,65,33.70,29.92,17,2,17,57.05
2014-6-26,86.7,76.3,71.6,77.8,72.2,69.8,96,88,68,29.92,29.92,13,2,13,0.00
2014-6-27,88.9,78.2,72.0,79.3,73.4,69.9,95,86,67,29.92,29.92,21,4,21,0.08
2014-6-28,92.5,80.5,75.2,79.6,76.0,71.8,95,87,62,29.92,29.92,21,5,21,0.13
2014-6-29,95.4,85.3,77.7,79.2,76.9,75.3,93,77,54,29.92,29.92,16,6,16,0.00
2014-6-30,96.6,85.4,76.8,77.3,74.9,71.2,94,73,47,29.92,29.92,19,6,19,0.00
2014-7-1,95.9,84.8,76.3,77.3,74.6,72.2,93,73,47,29.92,29.92,13,2,13,0.00
2014-7-2,95.0,84.7,75.0,77.1,74.7,71.4,95,74,53,29.92,29.92,8,1,8,0.00
2014-7-3,90.9,81.0,73.6,77.1,72.8,68.9,94,77,59,29.92,29.92,9,2,9,0.00
2014-7-4,88.2,79.3,70.9,74.0,70.8,66.9,95,76,61,29.92,29.92,7,1,7,0.00
2014-7-5,91.6,80.5,68.5,73.2,68.5,64.9,89,69,46,29.92,29.92,6,1,6,0.00
2014-7-6,95.4,83.0,69.4,75.5,70.9,66.4,92,69,46,29.92,29.92,12,2,12,0.00
2014-7-7,96.3,84.7,73.0,76.1,72.7,70.3,94,70,45,29.92,29.92,11,3,11,0.00
2014-7-8,98.1,86.3,75.9,76.6,74.0,71.3,92,69,45,29.92,29.92,11,3,11,0.00
2014-7-9,97.2,85.8,76.1,75.9,73.4,69.7,88,69,44,29.92,29.92,14,3,14,0.00
2014-7-10,98.8,85.4,74.1,77.5,73.0,70.4,92,69,43,32.19,29.92,18,3,18,0.00
2014-7-11,98.6,86.0,72.9,76.6,73.2,69.8,91,68,43,29.92,29.92,9,2,9,0.00
2014-7-12,100.6,87.7,75.4,78.0,74.1,68.5,92,67,37,29.92,29.92,10,1,10,0.00
2014-7-13,100.4,86.9,76.3,78.5,74.6,71.5,91,69,43,29.92,29.92,10,2,10,0.00
2014-7-14,100.2,86.7,73.6,76.5,73.3,70.4,90,67,43,29.92,29.92,10,2,10,0.00
2014-7-15,90.0,82.1,76.3,76.9,74.3,71.1,91,78,57,29.92,29.92,10,2,10,0.04
2014-7-16,92.1,80.8,70.9,73.4,69.6,66.3,95,71,46,29.92,29.92,8,2,8,0.00
2014-7-17,81.7,74.7,70.3,75.3,69.4,63.0,97,84,72,29.92,29.92,12,1,19,2.02
2014-7-18,76.3,72.4,69.8,73.6,69.9,66.1,98,92,83,29.92,29.92,10,2,11,1.12
2014-7-19,73.9,70.5,68.0,69.4,67.3,65.6,95,90,83,29.92,29.92,6,1,6,0.00
2014-7-20,89.8,77.0,67.3,74.6,70.3,65.8,97,81,57,29.92,29.92,7,1,7,0.00
2014-7-21,92.7,80.5,70.3,78.5,73.4,68.1,95,80,56,29.92,29.92,5,1,5,0.00
2014-7-22,92.1,82.1,0.0,99.9,73.7,71.6,94,76,6,29.92,29.92,7,1,7,13.55
2014-7-23,93.6,82.8,71.8,77.0,73.0,69.4,95,74,50,29.92,29.92,27,1,27,0.00
2014-7-24,92.8,82.2,69.8,74.7,71.0,67.4,93,71,48,29.92,29.92,14,2,17,0.06
2014-7-25,95.7,80.9,32.0,99.9,74.5,70.3,95,75,5,29.92,29.92,8,2,8,0.00
2014-7-26,136.0,85.5,0.0,99.9,75.7,46.7,94,71,6,34.46,29.92,11,3,11,144.80
2014-7-27,96.8,84.4,0.0,99.9,76.1,71.5,92,72,5,34.46,29.92,57,2,57,18.98
2014-7-28,97.2,83.7,75.2,77.8,74.9,71.1,95,77,48,29.92,29.92,20,2,20,0.20
2014-7-29,91.4,81.5,73.8,76.3,72.6,67.3,96,77,46,29.92,29.92,7,1,7,0.00
2014-7-30,91.2,81.1,72.1,73.8,70.7,68.0,88,72,51,29.92,29.92,8,1,8,0.00
2014-7-31,85.8,73.8,32.0,99.9,75.2,67.7,96,82,5,33.70,29.92,10,1,10,99.28
2014-8-1,75.6,73.4,71.4,74.7,71.3,68.8,98,93,88,29.92,29.92,8,2,8,0.00
2014-8-2,84.4,73.0,0.0,99.9,70.5,68.1,93,87,5,33.70,29.92,11,2,11,38.26
2014-8-3,136.0,77.3,72.7,76.3,73.0,41.9,95,87,63,29.92,29.92,8,1,8,3.39
2014-8-4,89.8,80.0,73.9,79.3,74.9,72.5,97,85,63,29.92,29.92,8,1,8,0.05
2014-8-5,94.5,83.8,73.4,79.0,74.7,70.8,97,76,49,29.95,29.92,7,1,7,0.01
2014-8-6,95.2,84.9,75.9,79.6,76.0,74.1,95,76,54,29.92,29.92,10,2,10,0.00
2014-8-7,95.9,85.6,76.6,79.5,76.3,74.6,95,76,52,29.92,29.92,13,3,13,0.00
2014-8-8,97.3,86.8,78.1,79.3,76.9,73.6,93,74,50,29.92,29.92,13,3,13,0.00
2014-8-9,98.1,86.9,77.7,79.6,76.6,73.7,93,73,47,29.92,29.92,11,2,11,0.00
2014-8-10,98.6,87.8,77.2,79.3,76.7,74.1,94,72,48,29.92,29.92,10,2,10,0.00
2014-8-11,97.5,82.3,0.0,78.5,75.4,68.6,95,80,46,33.70,29.92,16,2,16,31.00
2014-8-12,93.0,81.8,71.2,77.4,70.2,63.2,96,71,41,29.92,29.92,10,1,10,0.02
2014-8-13,89.4,78.6,66.4,70.1,66.0,63.5,94,68,44,29.92,29.92,8,1,8,0.00
2014-8-14,90.7,78.4,32.0,99.9,66.9,63.7,94,69,5,33.70,29.92,8,1,8,0.00
2014-8-15,93.4,81.4,70.7,75.5,70.5,65.5,86,71,50,29.92,29.92,8,1,8,0.00
2014-8-16,98.4,86.4,75.7,78.9,75.2,71.7,94,71,47,29.92,29.92,14,3,14,0.00
2014-8-17,96.6,84.9,77.5,78.9,75.6,72.3,93,75,49,29.92,29.92,24,3,24,0.00
2014-8-18,99.7,85.6,77.7,79.5,75.0,70.9,93,73,44,29.92,29.92,18,4,18,0.00
2014-8-19,98.4,82.3,74.7,78.4,74.1,62.2,94,78,44,29.92,29.92,20,3,20,0.07
2014-8-20,97.0,82.7,73.4,80.0,74.3,71.3,96,78,48,29.92,29.92,21,2,21,0.00
2014-8-21,97.5,85.3,74.8,81.0,75.0,71.2,96,74,47,29.92,29.92,15,3,15,0.00
2014-8-22,98.6,86.3,75.9,78.2,75.2,71.3,95,72,44,29.92,29.92,11,2,11,0.00
2014-8-23,97.7,85.9,74.1,77.3,73.7,57.0,94,70,43,29.92,29.92,12,2,12,0.00
2014-8-24,99.5,86.9,74.8,78.0,73.1,68.6,93,67,39,29.92,29.92,9,2,9,0.00
2014-8-25,97.5,86.0,74.8,76.1,73.3,69.6,92,68,42,29.92,29.92,8,2,8,0.00
2014-8-26,94.5,84.2,74.8,76.1,72.6,70.3,91,70,50,29.92,29.92,7,1,7,0.00
2014-8-27,95.7,83.5,71.4,72.4,70.1,66.3,91,66,42,29.92,29.92,8,1,8,0.00
2014-8-28,97.3,84.5,73.0,77.0,73.0,69.8,92,70,43,29.92,29.92,15,2,15,0.00
2014-8-29,97.5,84.6,74.8,77.5,73.3,69.3,95,71,42,29.92,29.92,17,2,17,0.00
2014-8-30,91.0,81.4,74.1,77.2,74.0,70.4,94,79,57,29.92,29.92,11,2,11,0.00
2014-8-31,92.1,81.1,0.0,99.9,74.4,72.2,95,79,5,33.70,29.92,56,4,56,722.60
2014-9-1,97.9,84.9,75.4,78.9,75.6,72.5,94,76,46,29.92,29.92,14,4,14,0.00
2014-9-2,95.4,82.3,77.2,79.2,76.3,74.3,94,83,52,29.92,29.92,19,2,19,0.14
2014-9-3,95.0,84.3,76.3,80.9,75.9,73.4,97,78,52,29.92,29.92,11,2,13,0.00
2014-9-4,96.8,84.9,75.4,80.3,75.0,72.3,95,74,48,29.92,29.92,12,2,12,2.29
2014-9-5,98.2,85.5,75.4,79.4,73.8,70.0,93,71,43,29.92,29.92,8,1,8,0.00
2014-9-6,97.7,82.4,74.5,78.3,73.6,68.9,94,77,44,29.92,29.92,13,1,13,0.70
2014-9-7,88.2,78.8,0.0,99.9,74.3,72.2,96,84,5,29.92,29.92,11,1,11,8.33
2014-9-8,94.1,82.4,72.9,77.5,74.5,71.4,97,79,50,29.92,29.92,8,0,8,0.00
2014-9-9,94.8,84.1,74.5,77.7,75.0,73.0,95,76,52,29.92,29.92,9,2,9,0.00
2014-9-10,96.8,85.4,76.5,77.8,74.5,71.4,94,72,47,29.92,29.92,18,5,18,0.00
2014-9-11,97.9,85.1,76.8,79.5,74.9,71.4,94,74,45,29.92,29.92,10,2,10,0.00
2014-9-12,91.9,79.4,70.0,79.6,74.7,68.2,96,86,57,29.92,29.92,12,1,12,0.65
2014-9-13,70.0,65.9,63.1,68.2,62.8,61.0,96,90,81,29.92,29.92,13,5,13,0.05
2014-9-14,84.7,72.6,63.1,71.7,65.2,60.1,94,79,58,29.92,29.92,9,2,9,0.00
2014-9-15,84.0,76.5,69.1,75.4,71.4,67.3,95,85,71,29.92,29.92,4,0,4,0.00
2014-9-16,91.2,81.2,74.3,76.6,73.7,70.9,95,79,56,29.92,29.92,11,2,11,0.00
2014-9-17,92.5,80.5,72.9,77.3,73.4,71.0,96,80,51,29.92,29.92,12,2,12,0.00
2014-9-18,84.9,76.0,70.9,77.3,72.9,69.4,97,90,70,29.92,29.92,11,1,11,0.11
2014-9-19,88.9,78.2,70.0,76.0,71.4,69.1,97,81,55,29.92,29.92,8,1,11,0.00
2014-9-20,92.1,80.1,69.4,73.7,69.3,65.3,95,73,44,29.92,29.92,12,1,12,0.00
2014-9-21,93.0,80.5,68.2,73.7,69.6,66.1,95,72,45,29.92,29.92,8,1,8,0.00
2014-9-22,88.2,78.4,0.0,72.4,63.7,-55.2,89,63,37,33.70,29.92,12,3,12,0.01
2014-9-23,84.0,70.7,59.2,59.3,56.1,51.9,86,63,35,29.92,29.92,7,1,8,0.00
2014-9-24,87.8,72.6,57.0,61.8,57.3,52.4,86,62,35,29.92,29.92,11,1,11,0.00
2014-9-25,87.8,74.0,62.1,69.2,62.6,57.7,89,69,43,29.92,29.92,8,1,8,0.00
2014-9-26,88.5,76.0,65.5,67.3,64.2,61.4,95,70,42,29.92,29.92,8,1,8,0.00
2014-9-27,89.1,75.7,65.1,68.6,64.4,62.2,93,71,44,29.92,29.92,8,1,8,0.00
2014-9-28,88.3,77.4,70.3,71.4,66.4,62.0,84,70,44,29.92,29.92,9,1,9,0.00
2014-9-29,88.7,76.7,65.5,72.5,68.6,63.4,94,77,55,29.92,29.92,9,1,9,0.00
2014-9-30,90.7,79.9,70.3,74.4,70.5,67.6,93,75,49,29.92,29.92,12,2,12,0.00
2014-10-1,91.6,81.1,75.0,77.1,74.1,71.6,96,81,55,29.92,29.92,14,3,14,0.00
2014-10-2,95.0,82.8,70.5,78.4,74.8,66.9,95,79,51,29.92,29.92,19,6,19,1.02
2014-10-3,80.4,71.2,61.9,69.8,58.5,47.3,95,68,32,29.92,29.92,15,3,15,0.30
2014-10-4,76.8,64.5,53.2,55.3,46.1,30.4,83,56,22,29.92,29.92,11,2,11,0.00
2014-10-5,83.8,67.5,0.0,61.3,55.9,-55.2,89,68,43,33.70,29.92,16,3,52,50.95
2014-10-6,77.0,67.4,61.5,69.2,63.9,59.1,97,89,75,29.92,29.92,18,2,18,0.76
2014-10-7,86.7,74.0,63.9,76.2,69.6,61.8,99,87,64,29.92,29.92,12,2,12,0.01
2014-10-8,85.6,77.8,73.0,75.5,73.2,71.3,96,86,68,29.92,29.92,11,2,11,0.00
2014-10-9,88.5,78.8,73.0,73.9,72.3,70.2,96,81,57,29.92,29.92,13,3,13,0.00
2014-10-10,89.2,79.5,71.6,77.6,73.9,69.5,98,84,63,29.92,29.92,17,4,17,0.00
2014-10-11,77.0,72.2,65.8,74.5,69.6,64.0,96,92,80,29.92,29.92,13,2,13,0.21
2014-10-12,81.7,70.8,64.2,74.1,67.9,62.8,98,91,76,29.92,29.92,13,2,13,0.04
2014-10-13,77.9,67.9,59.5,74.5,63.9,53.9,98,87,70,29.92,29.92,22,5,22,2.44
2014-10-14,73.6,63.0,54.5,54.4,49.1,40.5,87,64,32,29.92,29.92,13,2,13,0.05
2014-10-15,79.9,63.3,49.1,58.8,52.2,46.6,94,71,35,29.92,29.92,9,1,9,0.00
2014-10-16,84.2,67.2,52.9,60.4,55.9,50.9,94,71,38,29.92,29.92,15,2,15,0.00
2014-10-17,84.0,70.1,57.2,69.1,62.4,54.0,94,78,57,29.92,29.92,13,2,13,0.00
2014-10-18,82.8,69.4,0.0,70.7,63.0,-55.2,97,81,5,33.70,29.92,55,2,55,0.00
2014-10-19,75.2,65.1,56.5,59.9,56.6,54.2,93,75,51,29.92,29.92,8,1,8,0.00
2014-10-20,76.6,63.9,52.5,60.9,56.3,51.0,97,78,52,29.92,29.92,8,1,8,0.00
2014-10-21,79.7,66.3,53.6,65.5,59.5,52.2,98,81,56,29.92,29.92,7,1,7,0.00
2014-10-22,78.4,66.9,59.0,65.1,58.9,55.0,97,78,47,29.92,29.92,10,1,10,0.00
2014-10-23,71.1,62.4,56.3,58.4,55.1,50.9,89,78,53,29.92,29.92,7,0,7,0.00
2014-10-24,77.5,62.9,51.8,60.8,55.0,49.8,95,78,47,29.92,29.92,6,0,6,0.00
2014-10-25,82.6,67.5,54.9,67.9,60.9,52.9,95,81,55,29.92,29.92,7,1,7,0.00
2014-10-26,83.7,69.5,57.7,65.8,60.3,55.7,95,75,46,29.92,29.92,13,2,13,0.00
2014-10-27,82.6,71.1,60.4,68.2,63.7,59.0,97,79,53,29.92,29.92,21,5,21,0.00
2014-10-28,80.6,72.3,63.5,71.3,67.2,61.8,96,85,65,29.92,29.92,10,2,10,0.00
2014-10-29,74.7,67.9,55.6,68.0,58.7,48.7,95,74,44,29.92,29.92,12,2,12,0.02
2014-10-30,74.5,60.5,47.1,55.7,50.1,44.4,96,72,36,29.92,29.92,8,1,8,0.00
2014-10-31,70.9,60.2,51.6,53.1,48.3,44.3,93,67,41,29.92,29.92,14,3,14,0.26
2014-11-1,59.5,49.5,39.6,44.5,34.8,26.3,82,60,29,29.92,29.92,10,2,10,0.00
2014-11-2,66.0,51.3,39.0,45.8,39.7,35.4,88,67,37,29.92,29.92,11,1,11,0.00
2014-11-3,74.7,61.7,47.1,62.4,54.8,43.1,89,79,63,29.92,29.92,13,2,13,0.00
2014-11-4,80.1,66.9,59.9,66.9,61.6,58.2,98,84,61,29.92,29.92,19,4,19,0.53
2014-11-5,62.2,60.7,59.7,61.7,60.3,59.3,99,98,98,29.92,29.92,8,2,8,0.60
2014-11-6,68.0,60.4,50.7,59.6,55.8,46.2,99,86,59,29.92,29.92,11,2,11,0.01
2014-11-7,62.8,52.1,44.2,46.5,42.2,38.1,93,71,41,29.92,29.92,8,1,8,0.00
2014-11-8,67.1,53.1,41.9,55.9,47.5,40.0,95,82,64,29.92,29.92,10,1,10,0.00
2014-11-9,69.3,53.5,41.4,52.8,46.6,39.8,95,79,48,29.92,29.92,10,0,10,0.00
2014-11-10,77.0,60.9,44.6,61.4,53.5,42.8,97,79,45,29.92,29.92,21,1,21,0.00
2014-11-11,63.7,54.7,41.9,62.8,48.3,35.7,97,80,61,29.92,29.92,4,0,4,0.17
2014-11-12,51.4,43.3,37.2,35.9,32.9,24.8,82,67,53,29.92,29.92,10,0,10,0.44
2014-11-13,44.2,37.9,32.2,25.5,18.4,11.3,60,46,32,29.92,29.92,6,0,6,0.56
2014-11-14,44.4,37.1,27.9,25.8,20.0,15.2,71,51,31,29.92,29.92,1,0,1,0.00
2014-11-15,47.7,43.6,39.6,41.0,30.5,25.0,89,60,48,29.92,29.92,4,0,4,0.05
2014-11-16,45.1,42.3,39.0,44.3,41.7,37.6,99,98,89,29.92,29.92,0,0,0,0.69
2014-11-17,47.1,36.6,29.8,37.7,23.8,-31.6,95,63,5,29.92,29.92,4,0,4,495.00
2014-11-18,51.6,38.2,29.3,32.7,25.6,18.6,80,63,33,29.92,29.92,5,0,5,0.00
2014-11-19,65.1,47.4,29.7,48.4,38.9,24.9,90,74,53,29.92,29.92,0,0,0,0.00
2014-11-20,71.4,57.9,44.4,58.9,52.4,42.4,97,83,64,29.92,29.92,0,0,0,0.00
2014-11-21,62.1,59.2,56.8,61.2,58.0,55.0,98,96,83,29.92,29.92,0,0,0,0.71
2014-11-22,71.1,62.3,55.9,62.8,58.9,53.1,97,89,73,29.92,29.92,0,0,0,0.74
2014-11-23,74.8,65.0,59.0,64.1,59.0,47.8,98,83,50,29.92,29.92,1,0,1,0.17
2014-11-24,62.2,52.9,41.2,48.3,37.9,25.4,84,60,25,29.92,29.92,14,0,14,0.20
2014-11-25,62.4,47.3,36.1,41.4,36.3,28.4,94,70,29,29.92,29.92,7,0,7,0.00
2014-11-26,70.0,52.4,38.8,42.7,38.4,32.3,90,63,26,29.92,29.92,0,0,0,0.00
2014-11-27,61.3,49.7,39.9,40.2,31.8,22.8,84,54,23,29.92,29.92,0,0,0,0.02
2014-11-28,68.9,52.1,36.0,53.8,44.2,31.3,92,76,55,29.92,29.92,1,0,1,0.00
2014-11-29,75.6,64.9,54.3,62.9,59.1,52.2,98,83,57,29.92,29.92,0,0,0,0.00
2014-11-30,78.6,69.1,63.0,64.7,61.9,60.3,94,79,54,29.92,29.92,0,0,1,0.00
2014-12-1,67.1,55.1,43.9,66.0,51.1,36.3,98,86,73,29.92,29.92,2,0,6,0.11
2014-12-2,55.0,48.1,40.1,49.6,40.2,32.1,91,74,65,29.92,29.92,0,0,0,0.01
2014-12-3,60.4,55.5,51.8,56.9,53.9,49.6,98,94,87,29.92,29.92,0,0,0,0.00
2014-12-4,68.5,60.9,54.3,63.4,58.9,53.5,99,93,82,29.92,29.92,0,0,0,0.00
2014-12-5,77.4,69.0,63.9,70.6,66.7,62.9,99,93,75,29.92,29.92,10,0,10,0.02
2014-12-6,68.4,61.2,52.5,67.0,57.1,49.4,98,87,76,29.92,29.92,1,0,1,0.01
2014-12-7,59.5,52.8,47.3,50.1,46.2,43.3,92,79,61,29.92,29.92,12,0,12,0.07
2014-12-8,63.1,50.4,39.7,47.3,43.7,38.2,97,79,51,29.92,29.92,0,0,0,0.00
2014-12-9,65.5,50.1,38.5,49.0,43.2,36.9,96,79,48,29.92,29.92,0,0,0,0.00
2014-12-10,59.0,49.1,40.6,48.0,44.2,39.7,98,84,64,29.92,29.92,4,0,4,0.00
2014-12-11,56.3,52.3,32.0,52.6,49.9,-31.6,97,91,85,33.70,29.92,45,0,45,0.09
2014-12-12,65.5,57.8,52.3,59.8,54.5,50.5,98,89,77,29.92,29.92,0,0,1,0.06
2014-12-13,70.0,58.6,46.0,59.3,53.0,45.2,97,83,59,29.92,29.92,11,0,11,0.00
2014-12-14,72.3,63.7,56.7,62.0,58.8,53.7,97,85,69,29.92,29.92,0,0,0,0.00
2014-12-15,74.7,65.8,54.3,67.3,52.4,33.7,98,67,24,29.92,29.92,5,0,5,0.12
2014-12-16,57.6,49.6,41.5,39.3,36.2,33.1,80,61,44,29.92,29.92,11,0,11,0.08
2014-12-17,52.0,45.0,36.0,47.1,40.0,32.1,96,83,71,29.92,29.92,5,0,5,0.01
2014-12-18,55.8,51.3,47.3,52.3,49.2,46.5,98,93,86,29.92,29.92,4,0,4,0.00
2014-12-19,53.6,50.0,47.7,52.7,49.5,47.4,99,98,95,29.92,29.92,6,0,6,0.44
2014-12-20,54.1,48.2,43.0,47.6,45.8,41.4,99,92,74,29.92,29.92,12,2,12,0.00
2014-12-21,54.1,47.3,38.7,49.4,44.8,38.1,99,92,81,29.92,29.92,14,2,14,0.00
2014-12-22,70.2,58.7,50.9,62.5,54.8,49.4,99,88,66,29.92,29.92,18,4,18,0.00
2014-12-23,53.8,50.4,43.9,51.9,46.2,40.9,97,86,72,29.92,29.92,21,4,21,0.17
2014-12-24,52.3,43.8,35.4,41.0,36.2,31.0,86,75,52,29.92,29.92,9,0,9,0.05
2014-12-25,62.6,46.7,30.4,45.8,37.3,27.3,93,73,42,29.92,29.92,24,1,24,0.00
2014-12-26,63.1,57.3,48.6,60.7,54.6,45.3,97,91,82,29.92,29.92,0,0,0,0.00
2014-12-27,66.7,54.7,42.6,66.5,53.8,40.9,99,97,93,29.92,29.92,15,3,15,0.53
2014-12-28,42.6,39.6,32.0,41.0,38.3,-31.6,99,96,5,33.70,29.92,45,2,45,0.52
2014-12-29,47.1,44.2,40.5,46.4,43.4,40.2,99,97,93,29.92,29.92,8,1,8,0.00
2014-12-30,46.4,40.6,34.2,45.6,38.3,31.2,98,92,84,29.92,29.92,10,3,10,0.01
2014-12-31,43.7,38.2,33.8,33.3,30.7,28.1,86,74,64,29.92,29.92,17,2,17,0.06
2015-1-1,42.3,39.1,36.7,42.0,37.6,32.0,99,95,74,29.92,29.92,8,1,8,1.37
2015-1-2,51.3,45.3,40.6,51.0,45.0,40.4,99,99,97,29.92,29.92,6,0,6,0.63